When you browse on this site, cookies collect data to enhance your experience and personalize the content and advertising you see.
Visit our Privacy Policy to learn more. By continuing to use the site, you agree to this use of cookies and data.
  • In Belgien
  • Länderverzeichnis
  • Für 7 Tage
  • Wassertemperatur
  • Wetterkarte
  • Widgets
  • user-avatar
    Anmelden

    Stündliche Wetter Lesnoe

    Heute, 22 September, Sonntag

    Zeit Temperatur Niederschläge Wind Luftdruck Luftfeuchtigkeit
    00:00 +5°C° 0.5 mm 2 m/S 737 mmHg 96%
    01:00 +5°C° 0.5 mm 2 m/S 737 mmHg 96%
    02:00 +4°C° 0.5 mm 3 m/S 737 mmHg 96%
    03:00 +3°C° 0.3 mm 3 m/S 737 mmHg 95%
    04:00 +2°C° 0.3 mm 3 m/S 736 mmHg 95%
    05:00 +1°C° 0.3 mm 3 m/S 736 mmHg 94%
    06:00 +1°C° 0.1 mm 4 m/S 737 mmHg 94%
    07:00 +1°C° 0.1 mm 4 m/S 737 mmHg 93%
    08:00 +1°C° 0.1 mm 5 m/S 737 mmHg 93%
    09:00 +1°C° 0.2 mm 5 m/S 738 mmHg 91%
    10:00 +2°C° 0.2 mm 5 m/S 738 mmHg 89%
    11:00 +2°C° 0.2 mm 5 m/S 739 mmHg 88%
    12:00 +2°C° 0.3 mm 5 m/S 739 mmHg 86%
    13:00 +3°C° 0.3 mm 5 m/S 740 mmHg 85%
    14:00 +3°C° 0.3 mm 6 m/S 740 mmHg 84%
    15:00 +3°C° 0.1 mm 5 m/S 741 mmHg 84%
    16:00 +2°C° 0.1 mm 5 m/S 741 mmHg 85%
    17:00 +3°C° 0.1 mm 4 m/S 742 mmHg 85%
    18:00 +3°C° 0 mm 4 m/S 742 mmHg 86%
    19:00 +1°C° 0 mm 4 m/S 743 mmHg 88%
    20:00 +1°C° 0 mm 4 m/S 744 mmHg 89%
    21:00 0°C° 0 mm 4 m/S 744 mmHg 89%
    22:00 0°C° 0 mm 4 m/S 744 mmHg 89%
    23:00 0°C° 0 mm 4 m/S 745 mmHg 89%

    Morgen, 23 September, Montag

    Zeit Temperatur Niederschläge Wind Luftdruck Luftfeuchtigkeit
    00:00 0°C° 0 mm 4 m/S 745 mmHg 89%
    01:00 -1°C° 0 mm 4 m/S 745 mmHg 90%
    02:00 -1°C° 0 mm 4 m/S 746 mmHg 91%
    03:00 -1°C° 0 mm 4 m/S 746 mmHg 91%
    04:00 -1°C° 0 mm 4 m/S 746 mmHg 90%
    05:00 -1°C° 0 mm 4 m/S 746 mmHg 89%
    06:00 -1°C° 0 mm 4 m/S 746 mmHg 84%
    07:00 0°C° 0 mm 5 m/S 746 mmHg 80%
    08:00 +1°C° 0 mm 5 m/S 747 mmHg 75%
    09:00 +2°C° 0 mm 5 m/S 747 mmHg 72%
    10:00 +3°C° 0 mm 5 m/S 747 mmHg 69%
    11:00 +3°C° 0 mm 5 m/S 747 mmHg 67%
    12:00 +5°C° 0.1 mm 5 m/S 747 mmHg 65%
    13:00 +5°C° 0.1 mm 5 m/S 747 mmHg 64%
    14:00 +5°C° 0.1 mm 5 m/S 747 mmHg 62%
    15:00 +5°C° 0.1 mm 5 m/S 747 mmHg 69%
    16:00 +4°C° 0.1 mm 4 m/S 747 mmHg 75%
    17:00 +3°C° 0.1 mm 4 m/S 747 mmHg 82%
    18:00 +3°C° 0.1 mm 4 m/S 747 mmHg 85%
    19:00 +2°C° 0.1 mm 3 m/S 747 mmHg 88%
    20:00 +1°C° 0.1 mm 3 m/S 748 mmHg 91%
    21:00 +2°C° 0 mm 2 m/S 748 mmHg 93%
    22:00 +1°C° 0 mm 2 m/S 748 mmHg 95%
    23:00 -1°C° 0 mm 2 m/S 748 mmHg 97%

    übermorgen, 24 September, Dienstag

    Zeit Temperatur Niederschläge Wind Luftdruck Luftfeuchtigkeit
    00:00 -1°C° 0 mm 2 m/S 748 mmHg 97%
    01:00 -1°C° 0 mm 2 m/S 748 mmHg 97%
    02:00 -2°C° 0 mm 2 m/S 749 mmHg 97%
    03:00 -2°C° 0 mm 2 m/S 748 mmHg 97%
    04:00 -2°C° 0 mm 2 m/S 748 mmHg 97%
    05:00 -2°C° 0 mm 2 m/S 748 mmHg 96%
    06:00 -1°C° 0 mm 2 m/S 748 mmHg 91%
    07:00 +1°C° 0 mm 2 m/S 748 mmHg 85%
    08:00 +1°C° 0 mm 3 m/S 748 mmHg 79%
    09:00 +2°C° 0 mm 3 m/S 749 mmHg 76%
    10:00 +3°C° 0 mm 3 m/S 749 mmHg 72%
    11:00 +3°C° 0 mm 3 m/S 749 mmHg 69%
    12:00 +3°C° 0 mm 3 m/S 749 mmHg 68%
    13:00 +4°C° 0 mm 3 m/S 749 mmHg 68%
    14:00 +4°C° 0 mm 3 m/S 748 mmHg 67%
    15:00 +3°C° 0 mm 3 m/S 748 mmHg 72%
    16:00 +3°C° 0 mm 3 m/S 748 mmHg 76%
    17:00 +4°C° 0 mm 2 m/S 748 mmHg 80%
    18:00 +3°C° 0 mm 2 m/S 748 mmHg 83%
    19:00 +3°C° 0 mm 2 m/S 748 mmHg 85%
    20:00 +2°C° 0 mm 2 m/S 748 mmHg 88%
    21:00 +2°C° 0 mm 2 m/S 748 mmHg 88%
    22:00 +1°C° 0 mm 2 m/S 748 mmHg 88%
    23:00 +2°C° 0 mm 1 m/S 748 mmHg 88%

    25 September, Mittwoch

    Zeit Temperatur Niederschläge Wind Luftdruck Luftfeuchtigkeit
    00:00 +1°C° 0 mm 2 m/S 748 mmHg 90%
    01:00 -1°C° 0 mm 2 m/S 748 mmHg 91%
    02:00 -1°C° 0 mm 2 m/S 748 mmHg 93%
    03:00 -1°C° 0 mm 2 m/S 748 mmHg 94%
    04:00 -1°C° 0 mm 2 m/S 748 mmHg 95%
    05:00 -2°C° 0 mm 2 m/S 748 mmHg 96%
    06:00 +1°C° 0 mm 2 m/S 748 mmHg 92%
    07:00 +2°C° 0 mm 2 m/S 748 mmHg 88%
    08:00 +4°C° 0 mm 1 m/S 748 mmHg 84%
    09:00 +5°C° 0 mm 1 m/S 749 mmHg 78%
    10:00 +7°C° 0 mm 1 m/S 749 mmHg 72%
    11:00 +8°C° 0 mm 1 m/S 749 mmHg 66%
    12:00 +9°C° 0 mm 1 m/S 749 mmHg 66%
    13:00 +9°C° 0 mm 1 m/S 749 mmHg 66%
    14:00 +9°C° 0 mm 1 m/S 749 mmHg 65%
    15:00 +8°C° 0 mm 1 m/S 749 mmHg 69%
    16:00 +7°C° 0 mm 1 m/S 749 mmHg 73%
    17:00 +6°C° 0 mm 0 m/S 748 mmHg 77%
    18:00 +5°C° 0 mm 0 m/S 749 mmHg 81%
    19:00 +5°C° 0 mm 1 m/S 749 mmHg 84%
    20:00 +4°C° 0 mm 1 m/S 749 mmHg 88%
    21:00 +4°C° 0 mm 1 m/S 749 mmHg 89%
    22:00 +3°C° 0 mm 1 m/S 749 mmHg 91%
    23:00 +3°C° 0 mm 1 m/S 749 mmHg 92%

    26 September, Donnerstag

    Zeit Temperatur Niederschläge Wind Luftdruck Luftfeuchtigkeit
    00:00 +3°C° 0 mm 1 m/S 749 mmHg 93%
    01:00 +3°C° 0 mm 1 m/S 748 mmHg 93%
    02:00 +3°C° 0 mm 1 m/S 748 mmHg 93%
    03:00 +4°C° 0.2 mm 1 m/S 748 mmHg 94%
    04:00 +3°C° 0.2 mm 2 m/S 748 mmHg 95%
    05:00 +3°C° 0.2 mm 2 m/S 747 mmHg 96%
    06:00 +3°C° 0.4 mm 2 m/S 747 mmHg 96%
    07:00 +2°C° 0.4 mm 3 m/S 747 mmHg 96%
    08:00 +3°C° 0.4 mm 3 m/S 746 mmHg 96%
    09:00 +3°C° 0.2 mm 3 m/S 746 mmHg 96%
    10:00 +3°C° 0.2 mm 3 m/S 746 mmHg 96%
    11:00 +3°C° 0.2 mm 3 m/S 746 mmHg 95%
    12:00 +3°C° 0.1 mm 3 m/S 746 mmHg 95%
    13:00 +3°C° 0.1 mm 3 m/S 746 mmHg 95%
    14:00 +3°C° 0.1 mm 3 m/S 746 mmHg 94%
    15:00 +3°C° 0 mm 3 m/S 746 mmHg 94%
    16:00 +3°C° 0 mm 3 m/S 746 mmHg 94%
    17:00 +4°C° 0 mm 2 m/S 745 mmHg 93%
    18:00 +3°C° 0 mm 2 m/S 746 mmHg 94%
    19:00 +3°C° 0 mm 2 m/S 746 mmHg 95%
    20:00 +3°C° 0 mm 2 m/S 746 mmHg 96%
    21:00 +3°C° 0 mm 2 m/S 746 mmHg 96%
    22:00 +2°C° 0 mm 2 m/S 746 mmHg 96%
    23:00 +2°C° 0 mm 2 m/S 746 mmHg 97%

    27 September, Freitag

    Zeit Temperatur Niederschläge Wind Luftdruck Luftfeuchtigkeit
    00:00 +2°C° 0 mm 2 m/S 746 mmHg 96%
    01:00 +2°C° 0 mm 2 m/S 746 mmHg 96%
    02:00 +2°C° 0 mm 2 m/S 746 mmHg 96%
    03:00 +2°C° 0 mm 2 m/S 746 mmHg 96%
    04:00 +1°C° 0 mm 2 m/S 746 mmHg 96%
    05:00 +1°C° 0 mm 2 m/S 746 mmHg 95%
    06:00 +2°C° 0 mm 2 m/S 746 mmHg 93%
    07:00 +1°C° 0 mm 3 m/S 747 mmHg 91%
    08:00 +2°C° 0 mm 3 m/S 747 mmHg 89%
    09:00 +3°C° 0 mm 3 m/S 747 mmHg 83%
    10:00 +4°C° 0 mm 3 m/S 747 mmHg 78%
    11:00 +5°C° 0 mm 3 m/S 747 mmHg 72%
    12:00 +7°C° 0 mm 3 m/S 747 mmHg 70%
    13:00 +7°C° 0 mm 3 m/S 747 mmHg 68%
    14:00 +7°C° 0 mm 2 m/S 747 mmHg 66%
    15:00 +7°C° 0 mm 2 m/S 747 mmHg 68%
    16:00 +6°C° 0 mm 2 m/S 747 mmHg 71%
    17:00 +6°C° 0 mm 1 m/S 747 mmHg 74%
    18:00 +5°C° 0 mm 1 m/S 748 mmHg 78%
    19:00 +4°C° 0 mm 1 m/S 748 mmHg 82%
    20:00 +2°C° 0 mm 0 m/S 748 mmHg 86%
    21:00 +2°C° 0 mm 0 m/S 748 mmHg 87%
    22:00 +1°C° 0 mm 0 m/S 749 mmHg 88%
    23:00 +2°C° 0 mm 1 m/S 749 mmHg 89%
    Mehr zeigen